Wind_Speed
27 26 23 15 23 18 8 12 15 15 12 12 14 15 15 13 10 16 23 23 24 24 19 16 14 12 12 12 13 13 13 13 16 16 13 12 10 8 7 6 7 7 7 8 8 9 8 7 6
30 28 25 19 27 19 17 16 18 17 15 11 14 16 15 16 15 21 23 20 20 20 16 16 15 15 15 14 15 14 13 12 13 14 12 12 10 8 7 7 9 7 6 8 8 10 7 5 5
32 28 26 27 21 19 20 22 21 17 15 13 15 16 14 13 14 19 17 19 17 16 16 15 15 17 16 15 14 14 13 12 11 12 11 10 10 9 9 8 9 8 6 7 8 10 6 5 5
33 35 35 30 20 20 22 26 18 18 15 12 13 16 13 11 17 14 12 13 14 13 14 14 15 17 16 13 13 12 12 11 11 10 8 8 8 8 9 10 10 8 6 6 10 9 7 6 5
37 37 38 29 20 23 21 14 22 23 18 13 14 17 12 9 10 11 14 13 13 14 12 12 13 15 14 12 10 10 10 8 8 6 6 5 6 9 8 10 8 8 8 8 10 9 9 7 4
35 38 33 29 24 23 24 24 28 23 19 16 14 20 13 7 8 11 9 11 10 10 11 13 12 12 11 10 8 8 8 7 6 6 4 4 6 5 5 7 8 6 7 7 9 11 10 8 6
33 34 32 31 29 23 24 26 24 19 18 15 14 17 13 6 3 8 11 9 8 8 8 9 12 11 11 9 7 5 5 4 4 5 4 5 3 4 5 4 5 4 6 6 7 8 9 7 5
32 31 29 25 30 26 22 23 23 18 19 17 17 14 14 9 7 6 8 4 8 7 9 8 9 11 11 10 8 7 5 4 3 4 5 5 5 2 3 2 4 6 5 5 4 6 7 6 2
26 25 22 25 29 27 21 22 24 25 22 20 17 13 13 11 7 7 7 7 6 4 4 8 10 10 11 12 11 8 5 3 4 3 6 6 5 4 4 2 4 6 5 6 5 5 6 5 4
21 19 17 24 27 29 24 21 21 25 24 22 20 17 14 12 6 7 8 7 7 7 4 8 9 11 11 12 10 8 5 2 3 5 6 6 4 4 4 4 4 6 7 7 9 7 9 4 3
18 13 15 21 26 27 25 25 23 23 21 19 20 18 19 13 8 7 9 8 6 7 7 9 9 9 11 10 7 7 5 6 5 8 9 4 2 2 6 5 4 5 7 9 9 11 10 6 5
18 10 16 19 20 23 21 18 20 25 26 23 21 19 15 16 11 8 9 8 6 5 6 5 6 8 10 10 9 8 6 3 7 10 9 3 1 4 7 6 3 4 4 6 8 9 8 7 2
16 9 13 17 21 22 21 21 20 22 22 23 25 23 22 14 13 12 10 7 7 5 6 6 9 8 8 6 8 8 6 8 7 6 3 2 1 5 9 12 9 6 5 6 6 7 7 6 6
11 7 9 12 16 20 23 24 24 21 20 21 23 25 21 17 9 12 11 11 12 12 12 13 11 10 9 9 8 7 6 6 4 2 2 6 8 9 9 10 9 13 7 12 7 8 8 4 4
12 13 13 8 7 19 21 23 22 23 19 20 21 22 19 16 5 9 11 12 11 12 12 9 7 7 4 5 5 4 5 4 1 2 5 5 6 8 10 11 13 8 5 4 3 4 5 3 2
17 11 12 8 7 8 13 13 17 19 20 16 18 20 20 13 11 5 9 10 9 9 9 8 5 1 2 4 3 1 2 2 0 5 4 5 9 11 11 1 7 6 4 2 4 7 9 4 3
12 9 7 1 7 6 2 6 13 17 22 17 20 19 19 10 6 6 4 9 6 7 7 8 7 2 2 5 1 1 2 4 5 6 5 4 9 10 9 2 5 5 6 1 2 7 15 12 9
4 6 5 7 4 4 7 6 8 13 22 23 28 15 14 13 7 4 3 5 1 2 6 3 2 2 5 4 5 6 6 9 7 9 7 7 9 11 7 5 2 4 2 1 6 7 10 10 10
11 8 5 6 7 3 5 13 18 17 17 18 25 23 11 8 8 4 6 3 2 6 2 2 3 8 9 9 9 9 10 11 13 14 12 8 10 6 5 2 4 5 5 4 6 8 9 8 9
15 7 6 4 4 2 7 10 16 18 21 24 30 33 13 13 8 7 13 7 2 8 15 23 24 20 15 13 9 9 8 14 19 18 18 11 8 12 6 7 5 5 7 8 8 8 10 13 13
16 9 6 8 8 5 3 9 14 19 22 26 29 33 4 9 7 7 13 15 19 20 21 21 21 22 21 20 20 2 11 15 10 7 9 5 8 8 10 8 6 6 5 6 10 12 12 13 14
15 14 8 9 18 12 13 9 12 16 19 24 26 24 1 3 2 1 9 13 15 18 20 21 19 19 18 18 19 18 20 15 16 14 5 5 7 10 12 9 3 2 4 8 12 12 15 15 16
16 20 11 12 16 18 10 10 7 10 10 18 21 19 9 4 1 5 2 9 11 13 14 14 14 16 15 15 16 16 17 14 17 15 14 10 8 4 3 4 4 6 8 10 12 13 14 17 18
24 19 13 13 15 22 12 14 9 11 10 14 20 19 11 2 4 6 7 2 7 9 9 10 11 9 10 11 13 14 14 13 14 13 10 8 4 5 5 6 6 9 11 13 14 14 14 15 17
31 25 20 19 19 24 22 19 15 12 10 13 17 17 10 5 10 12 7 5 1 5 8 10 10 8 6 7 11 11 12 12 12 10 9 8 6 6 7 8 10 11 14 15 15 15 16 18 20
37 33 27 27 29 27 30 32 27 12 6 9 8 8 12 9 5 13 12 7 5 1 3 8 10 11 8 5 7 8 9 7 5 6 8 8 9 8 9 12 13 13 15 17 17 17 19 21 22
41 38 31 28 27 29 30 27 25 11 4 4 7 11 12 1 1 7 10 8 5 3 1 3 7 7 8 9 9 11 9 8 7 8 8 10 11 11 12 13 15 15 16 18 18 19 22 25 28
36 41 36 33 31 31 35 23 20 15 4 8 11 9 3 12 5 6 9 10 7 5 3 4 6 8 9 11 10 9 9 11 12 12 12 11 12 13 13 14 15 16 18 21 21 23 25 27 28
36 38 41 36 29 20 17 25 24 17 12 13 14 14 12 15 3 4 9 10 8 7 5 6 8 10 11 13 13 14 15 15 16 16 16 14 14 16 14 14 16 17 19 22 23 24 27 30 31
36 38 42 40 36 27 25 19 24 22 19 17 16 17 14 15 10 8 9 11 9 8 7 7 7 9 9 13 15 16 16 14 15 18 19 17 17 17 15 15 16 19 21 23 26 28 29 32 32
Wind_Direction
50 53 44 43 58 52 35 45 49 46 46 40 53 57 75 88 73 91 100 137 121 127 130 133 140 125 125 121 112 108 106 103 98 98 105 113 112 114 110 112 91 68 63 68 62 65 51 49 46
52 43 45 40 51 49 44 44 51 53 55 54 65 74 73 90 90 113 112 113 122 124 133 138 130 125 124 122 123 123 119 108 101 99 93 99 101 104 99 89 79 67 63 59 55 59 51 34 44
54 44 41 44 50 48 46 51 47 54 53 67 76 75 71 92 121 124 112 121 124 134 140 139 134 126 119 118 115 114 106 98 95 92 88 80 75 69 68 68 73 71 61 63 58 50 34 25 18
52 46 44 40 38 44 46 37 51 61 60 57 81 75 71 99 126 143 125 122 132 139 142 144 144 135 126 121 117 103 93 90 85 86 87 71 65 63 59 53 58 60 54 57 62 58 40 23 360
52 50 42 42 30 44 54 53 47 42 59 66 81 80 84 98 125 138 140 147 152 145 148 145 144 141 135 127 117 104 99 98 91 95 89 84 87 65 65 50 59 56 49 38 49 64 59 48 24
49 52 40 40 40 38 44 48 49 47 46 48 68 84 77 85 136 140 147 158 163 152 155 159 159 158 150 144 135 117 93 81 95 109 98 69 83 82 71 60 65 55 53 41 52 64 63 47 40
49 48 43 36 41 37 39 41 36 43 55 57 50 90 86 63 128 136 152 167 176 172 165 179 176 174 174 169 149 125 109 83 81 84 72 53 64 69 54 61 50 46 47 25 36 57 73 71 39
45 48 42 34 42 42 44 49 41 50 68 60 56 65 89 78 73 113 137 143 177 185 176 183 189 195 187 184 174 168 159 109 96 69 68 77 93 37 26 47 14 28 18 9 13 38 61 71 68
49 43 47 45 43 43 39 50 47 55 59 58 59 53 74 83 83 96 105 111 124 144 180 180 186 195 197 194 196 183 173 141 123 88 77 95 80 70 86 37 347 345 342 351 343 28 35 55 31
59 53 44 55 52 50 50 49 55 62 54 58 57 56 64 71 63 77 94 104 141 124 151 193 193 191 190 200 197 193 182 158 137 134 135 134 98 83 50 16 8 342 349 338 348 351 349 22 110
54 52 59 56 61 68 63 58 51 58 62 54 55 51 54 63 71 79 91 121 134 154 175 179 183 191 197 199 208 201 183 184 169 144 159 151 10 298 2 341 360 326 337 353 345 338 324 314 211
61 43 43 35 55 61 67 59 52 60 64 53 48 53 46 57 67 76 73 92 108 153 176 136 155 182 192 196 198 201 197 202 158 146 159 202 276 345 312 305 298 296 321 337 332 337 342 341 248
75 43 33 33 42 43 47 53 46 33 48 51 44 48 43 57 54 88 72 60 71 100 106 129 136 164 200 190 185 182 162 161 144 152 173 187 330 301 291 321 302 322 326 337 337 333 335 311 315
84 86 37 25 25 36 39 48 43 22 19 31 38 37 34 44 63 75 78 71 82 101 120 123 122 133 136 163 177 165 157 158 142 113 355 331 340 331 295 283 304 305 345 336 358 351 339 310 318
70 62 30 4 21 62 59 49 39 34 22 16 22 26 26 35 98 69 73 80 92 83 82 96 106 111 119 131 129 157 169 164 181 316 307 312 313 346 325 243 250 271 293 338 351 351 345 25 287
90 77 63 51 20 63 73 43 25 34 21 22 17 12 16 21 54 82 93 111 103 97 110 111 120 191 153 134 163 205 248 246 65 264 281 339 343 336 334 243 202 247 268 114 54 27 43 26 7
114 92 91 85 360 71 23 46 41 17 14 21 11 4 4 5 6 47 73 108 133 125 128 110 100 57 258 313 182 101 233 255 233 251 281 321 324 347 5 155 148 189 198 214 345 28 35 25 16
63 127 118 327 11 180 338 351 38 19 18 18 3 332 358 350 320 330 101 115 113 238 195 164 122 306 284 320 322 296 236 220 231 246 249 277 313 352 3 15 215 207 185 70 7 3 9 354 349
178 177 66 83 69 153 334 345 16 29 12 8 6 5 354 342 323 338 62 255 353 2 147 98 322 311 313 294 287 280 264 245 263 261 258 273 299 346 355 87 89 76 60 20 358 12 6 354 349
191 220 82 67 296 287 337 348 13 359 355 0 359 352 315 350 344 76 83 94 64 47 60 68 65 62 55 18 315 281 277 258 257 249 260 262 305 309 145 119 98 58 46 27 9 359 347 336 336
225 213 176 281 296 266 305 17 16 18 9 8 360 352 277 6 331 110 96 90 88 85 78 71 57 51 52 42 41 103 301 315 314 314 288 286 343 312 196 135 112 69 14 333 328 327 327 325 324
210 189 276 314 306 268 302 355 31 19 358 9 12 3 265 71 287 70 111 96 85 76 68 63 63 53 45 52 47 40 38 24 49 49 62 14 56 80 98 111 131 317 314 322 322 324 324 322 318
196 211 231 291 311 265 271 313 3 343 350 13 18 1 16 19 28 262 143 105 82 75 68 65 54 45 40 44 45 40 39 44 42 47 45 74 56 55 20 22 331 328 323 322 311 310 309 306 307
208 207 228 252 285 279 260 289 311 316 8 13 15 352 334 285 260 252 256 186 105 80 66 66 60 41 21 20 24 30 32 24 33 29 33 36 24 2 342 332 327 334 329 323 322 320 323 325 318
222 217 220 240 261 283 296 289 273 291 344 2 359 3 336 238 230 229 233 264 214 76 66 53 55 49 17 1 357 6 16 14 14 17 5 11 5 346 332 311 306 322 334 327 322 324 327 331 329
225 218 228 244 243 245 259 262 271 275 317 334 353 11 347 231 259 216 235 245 251 193 115 42 29 36 15 2 337 342 359 3 360 351 354 343 338 323 305 299 307 326 327 321 317 319 323 324 326
218 221 225 243 251 257 261 256 259 254 299 306 322 4 344 105 336 227 244 247 237 239 204 343 349 24 5 356 337 327 333 327 329 338 340 340 327 310 296 308 316 314 316 316 312 315 319 319 322
225 224 226 236 252 257 260 258 238 236 247 300 307 345 41 11 44 197 227 229 228 258 285 310 331 347 337 324 318 314 312 311 319 322 316 326 326 313 306 312 314 315 314 315 316 314 311 313 315
225 221 227 234 239 246 280 256 223 238 229 280 291 305 314 335 311 206 218 237 240 252 267 296 325 326 329 327 320 308 300 302 306 306 303 300 315 319 311 307 311 312 311 312 311 313 316 315 314
220 223 225 233 236 237 246 285 219 234 242 256 272 283 290 312 310 265 243 252 257 263 288 305 312 321 319 313 315 315 307 304 300 298 298 299 305 315 312 306 307 309 311 312 314 317 317 316 316
Height
5879 5877 5876 5874 5873 5869 5868 5866 5863 5863 5862 5861 5861 5859 5858 5860 5861 5863 5861 5862 5866 5868 5871 5873 5875 5875 5877 5880 5878 5879 5881 5882 5881 5881 5882 5882 5882 5883 5883 5883 5883 5884 5884 5885 5885 5884 5882 5881 5881
5882 5879 5878 5876 5873 5873 5871 5866 5867 5866 5864 5864 5864 5862 5862 5862 5863 5864 5867 5869 5869 5870 5874 5876 5877 5878 5880 5880 5881 5881 5882 5883 5882 5883 5884 5883 5884 5884 5883 5884 5883 5885 5885 5885 5886 5885 5885 5883 5884
5884 5882 5881 5877 5877 5874 5873 5870 5868 5867 5867 5866 5866 5865 5866 5866 5866 5869 5870 5871 5873 5875 5877 5878 5880 5881 5882 5882 5882 5882 5883 5884 5885 5884 5885 5885 5884 5885 5884 5885 5885 5885 5885 5885 5886 5886 5885 5884 5883
5885 5884 5880 5879 5880 5878 5873 5871 5870 5870 5870 5869 5867 5869 5870 5868 5868 5871 5872 5874 5876 5878 5880 5881 5882 5883 5883 5884 5883 5883 5884 5884 5885 5885 5886 5886 5886 5886 5885 5886 5886 5886 5886 5886 5887 5888 5886 5885 5884
5889 5885 5883 5886 5882 5878 5876 5876 5873 5873 5873 5872 5870 5870 5871 5871 5872 5872 5873 5875 5877 5878 5881 5883 5884 5884 5885 5885 5885 5885 5887 5887 5886 5887 5887 5888 5887 5886 5887 5887 5887 5887 5886 5886 5887 5887 5886 5886 5885
5891 5888 5890 5891 5887 5879 5878 5875 5872 5873 5874 5874 5873 5871 5874 5875 5875 5874 5875 5877 5878 5879 5881 5882 5884 5886 5886 5887 5887 5888 5888 5888 5888 5888 5889 5888 5888 5887 5887 5888 5887 5888 5886 5886 5886 5887 5887 5885 5885
5894 5891 5892 5893 5888 5883 5880 5876 5876 5877 5877 5877 5877 5873 5876 5878 5878 5877 5877 5878 5879 5880 5881 5883 5884 5886 5888 5889 5890 5890 5889 5889 5890 5889 5890 5889 5888 5888 5888 5888 5887 5887 5886 5886 5886 5886 5887 5886 5884
5897 5896 5896 5899 5892 5889 5885 5883 5883 5882 5879 5879 5878 5877 5877 5879 5880 5879 5879 5879 5880 5881 5882 5884 5886 5888 5889 5890 5890 5889 5888 5890 5891 5891 5890 5890 5889 5889 5889 5888 5888 5887 5886 5886 5886 5885 5886 5886 5885
5901 5901 5904 5902 5896 5894 5890 5888 5888 5885 5883 5881 5881 5880 5880 5880 5880 5879 5879 5879 5880 5881 5883 5884 5886 5888 5889 5890 5890 5890 5890 5890 5890 5891 5890 5890 5890 5890 5890 5888 5887 5887 5886 5885 5885 5884 5885 5885 5886
5905 5905 5906 5906 5902 5897 5897 5894 5893 5890 5888 5887 5885 5883 5881 5881 5881 5880 5880 5880 5881 5882 5883 5884 5885 5887 5889 5890 5890 5891 5891 5891 5890 5890 5890 5890 5891 5889 5888 5887 5887 5886 5885 5885 5884 5884 5884 5884 5884
5909 5911 5910 5910 5907 5903 5901 5901 5899 5894 5892 5892 5889 5887 5884 5883 5883 5882 5881 5881 5881 5881 5882 5883 5884 5887 5888 5889 5892 5892 5891 5890 5890 5889 5890 5890 5890 5889 5888 5887 5886 5885 5885 5885 5883 5883 5882 5882 5882
5911 5913 5913 5914 5910 5906 5903 5903 5902 5898 5896 5895 5892 5890 5888 5887 5885 5885 5884 5882 5882 5882 5882 5883 5885 5886 5887 5889 5891 5892 5892 5892 5890 5888 5889 5890 5889 5887 5887 5886 5886 5885 5885 5884 5884 5882 5881 5880 5881
5912 5913 5914 5915 5912 5910 5910 5907 5906 5903 5899 5896 5894 5891 5890 5890 5888 5886 5884 5883 5881 5883 5883 5884 5885 5886 5888 5890 5891 5891 5891 5892 5890 5889 5890 5891 5890 5888 5887 5885 5885 5885 5884 5883 5882 5881 5880 5880 5879
5914 5914 5914 5914 5915 5914 5912 5911 5911 5908 5904 5899 5896 5895 5892 5891 5890 5889 5887 5886 5885 5884 5884 5885 5886 5888 5889 5890 5891 5891 5891 5891 5891 5890 5890 5890 5888 5886 5885 5885 5884 5883 5883 5882 5881 5880 5879 5878 5878
5913 5914 5914 5915 5917 5918 5915 5912 5910 5909 5907 5904 5900 5899 5898 5897 5896 5893 5890 5889 5888 5887 5887 5887 5887 5887 5888 5890 5891 5892 5892 5891 5891 5890 5890 5889 5888 5885 5882 5882 5883 5882 5882 5882 5881 5880 5879 5878 5877
5912 5914 5915 5917 5919 5920 5916 5915 5913 5910 5909 5906 5904 5903 5903 5901 5898 5897 5892 5890 5890 5889 5889 5890 5890 5891 5891 5891 5891 5891 5891 5890 5889 5890 5891 5889 5887 5886 5882 5880 5881 5881 5881 5880 5879 5879 5879 5876 5877
5915 5915 5917 5918 5920 5919 5916 5914 5914 5912 5911 5908 5906 5905 5905 5903 5902 5897 5894 5891 5891 5891 5892 5890 5891 5892 5893 5892 5890 5889 5888 5889 5890 5891 5891 5889 5888 5886 5883 5881 5880 5880 5880 5880 5878 5877 5877 5876 5877
5918 5916 5916 5917 5920 5920 5915 5913 5913 5912 5912 5910 5909 5906 5905 5903 5901 5898 5894 5890 5888 5887 5889 5890 5890 5892 5894 5892 5890 5889 5888 5889 5889 5888 5887 5887 5886 5885 5884 5882 5881 5880 5880 5879 5878 5876 5876 5876 5874
5919 5917 5918 5918 5917 5918 5915 5915 5913 5912 5910 5908 5907 5904 5906 5903 5900 5896 5893 5887 5886 5886 5888 5890 5889 5889 5889 5888 5887 5887 5887 5887 5886 5885 5885 5884 5885 5884 5884 5882 5883 5881 5879 5878 5877 5876 5875 5875 5874
5917 5918 5916 5914 5916 5917 5916 5914 5913 5912 5910 5908 5906 5903 5902 5901 5899 5894 5891 5889 5887 5887 5890 5886 5886 5885 5883 5884 5882 5882 5883 5882 5882 5881 5881 5881 5882 5881 5882 5881 5881 5881 5880 5879 5877 5876 5875 5873 5871
5915 5916 5914 5912 5912 5913 5915 5913 5911 5911 5910 5908 5905 5901 5899 5902 5901 5897 5893 5892 5890 5890 5889 5887 5886 5884 5884 5886 5881 5882 5882 5879 5878 5877 5878 5880 5880 5879 5879 5879 5880 5880 5880 5880 5877 5875 5873 5871 5869
5914 5914 5910 5908 5907 5907 5911 5911 5910 5909 5908 5907 5906 5903 5900 5901 5902 5901 5895 5893 5892 5890 5890 5889 5890 5888 5889 5887 5885 5884 5882 5880 5878 5878 5878 5880 5880 5880 5880 5881 5881 5878 5877 5877 5875 5874 5871 5869 5868
5911 5906 5906 5905 5905 5905 5907 5907 5909 5909 5908 5907 5907 5905 5901 5901 5901 5901 5900 5894 5892 5889 5888 5891 5892 5890 5891 5890 5888 5887 5885 5885 5883 5881 5880 5880 5882 5883 5881 5881 5880 5878 5876 5875 5874 5872 5870 5867 5864
5906 5904 5905 5904 5902 5901 5903 5902 5905 5907 5906 5905 5903 5901 5900 5900 5901 5902 5900 5897 5894 5894 5893 5892 5890 5892 5892 5891 5890 5889 5886 5884 5883 5882 5882 5882 5882 5882 5880 5879 5877 5876 5875 5873 5871 5869 5866 5864 5861
5901 5902 5901 5902 5901 5897 5898 5899 5902 5903 5904 5902 5902 5901 5899 5897 5897 5898 5898 5897 5896 5895 5894 5893 5891 5891 5893 5891 5890 5889 5886 5885 5883 5884 5884 5881 5880 5879 5877 5877 5876 5875 5873 5870 5867 5865 5862 5859 5856
5895 5896 5896 5896 5897 5899 5897 5897 5898 5901 5902 5900 5901 5901 5898 5895 5895 5895 5896 5896 5896 5894 5894 5891 5891 5889 5892 5891 5891 5890 5887 5885 5886 5885 5882 5880 5878 5877 5876 5875 5873 5871 5869 5866 5864 5861 5858 5855 5852
5888 5889 5891 5891 5892 5893 5893 5894 5895 5897 5897 5897 5897 5896 5894 5893 5892 5892 5893 5893 5895 5894 5892 5891 5891 5887 5889 5890 5889 5888 5887 5885 5883 5881 5879 5877 5876 5874 5873 5871 5869 5867 5865 5863 5860 5857 5854 5851 5847
5879 5884 5887 5886 5886 5886 5887 5888 5891 5893 5892 5893 5893 5893 5893 5891 5889 5890 5891 5892 5891 5890 5889 5889 5888 5885 5885 5887 5886 5885 5885 5883 5882 5879 5876 5874 5873 5870 5869 5867 5865 5863 5861 5858 5854 5851 5848 5845 5842
5872 5876 5878 5880 5881 5880 5881 5882 5887 5889 5890 5890 5890 5890 5890 5889 5888 5888 5888 5888 5888 5887 5887 5886 5883 5882 5882 5882 5883 5882 5880 5879 5878 5876 5874 5871 5869 5866 5864 5862 5860 5858 5856 5854 5851 5848 5844 5840 5837
5864 5867 5871 5872 5875 5875 5874 5878 5881 5884 5886 5887 5886 5886 5888 5886 5885 5885 5884 5886 5886 5885 5884 5883 5882 5881 5880 5881 5880 5879 5876 5874 5873 5872 5870 5868 5866 5862 5859 5857 5855 5854 5851 5848 5846 5842 5838 5835 5831